Regional Weather Roundup
Issued by NWS Boston, MA

Home | Current Version | Previous Version | Text Only | Print | Product List | Glossary On
Versions: 1 2 3 4 5 6 7 8 9 10 11 12 13 14 15 16 17 18 19 20 21 22 23 24 25 26 27 28 29 30 31 32 33 34 35 36 37 38 39 40 41 42 43 44 45 46 47 48 49 50
834
ASUS41 KBOX 272310
RWRBOX

REGIONAL WEATHER ROUNDUP
NATIONAL WEATHER SERVICE TAUNTON MA
700 PM EDT FRI MAY 27 2016

NOTE:  "FAIR" INDICATES FEW OR NO CLOUDS BELOW 12,000 FEET WITH NO
SIGNIFICANT WEATHER AND/OR OBSTRUCTIONS TO VISIBILITY.  THE FOLLOWING
OBSERVATION LOCATIONS DO NOT REPORT PRESENT WEATHER...PROVINCETOWN...
SMITHFIELD...BLOCK ISLAND...KEENE...AND OXFORD.

MAZALL-280000-
EASTERN MASSACHUSETTS

CITY           SKY/WX    TMP DP  RH WIND       PRES   REMARKS
BOSTON         PTSUNNY   61  56  83 E7        30.02F
BEVERLY        SUNNY     66  56  70 SE6       30.01S
LAWRENCE       SUNNY     73  59  61 E5        30.02S
BEDFORD        MOSUNNY   77  62  59 SE9       29.99S
BLUE HILL        N/A     77  62  59 S16G23    30.03R
NORWOOD        MOSUNNY   80  64  58 S8        30.01R
MARSHFIELD     CLOUDY    79  64  61 SW10G21   30.02R
PLYMOUTH       CLOUDY    74  63  68 SW14G22   30.06R
TAUNTON        PTSUNNY   78  62  57 S9        30.04R
NEW BEDFORD    MOSUNNY   71  60  68 SW14G23   30.06R
$$

MAZALL-280000-
CAPE COD AND THE ISLANDS

CITY           SKY/WX    TMP DP  RH WIND       PRES   REMARKS
FALMOUTH       PTSUNNY   66  59  77 SW15G22   30.08S
HYANNIS        MOSUNNY   67  59  75 SW17      30.07R
CHATHAM        MOSUNNY   62  59  90 SW10      30.09S
PROVINCETOWN   SUNNY     66  60  81 S15       30.06R
NANTUCKET      CLOUDY    61  56  83 SW7       30.11R
MARTHAS VNYRD  SUNNY     65  58  78 SW14      30.09R
$$

MAZALL-280000-
CENTRAL AND WESTERN MASSACHUSETTS

CITY           SKY/WX    TMP DP  RH WIND       PRES   REMARKS
WORCESTER      MOSUNNY   80  62  54 S14       30.05S
FITCHBURG      MOSUNNY   86  63  45 SW9       30.00S
ORANGE         CLOUDY    82  64  54 S12       30.01S
SPRINGFIELD    PTSUNNY   80  68  67 S9        29.99F
WESTFIELD      CLOUDY    73  70  90 S7        30.00F
NORTH ADAMS    MOSUNNY   83  64  52 VRB5      29.99S
PITTSFIELD     CLOUDY    78  62  57 SW9       30.02S
$$

RIZALL-280000-
RHODE ISLAND

CITY           SKY/WX    TMP DP  RH WIND       PRES   REMARKS
PROVIDENCE     CLOUDY    79  61  53 SW15      30.05R
NEWPORT        SUNNY     65  58  78 S9        30.07S
BLOCK ISLAND   SUNNY     63  58  83 SW13      30.09R
SMITHFIELD     MOSUNNY  N/A N/A N/A SW6       30.04R
WESTERLY       SUNNY     67  57  70 S9        30.08S
$$

CTZALL-280000-
CONNECTICUT

CITY           SKY/WX    TMP DP  RH WIND       PRES   REMARKS
BRADLEY INTL   CLOUDY    81  63  54 S15       30.00S
HARTFORD       MOSUNNY   81  64  56 S10       30.02F
BRIDGEPORT     MOSUNNY   74  62  66 SW7       30.05R
DANBURY        CLOUDY    76  66  71 S6        30.05S
GROTON         SUNNY     66  62  87 SW7       30.07R
NEW HAVEN      MOSUNNY   70  62  76 S3        30.05S
CHESTER        FAIR      72  63  73 S5        30.07S
MERIDEN        CLOUDY    77  63  61 S10       30.03F
WILLIMANTIC    SUNNY     81  62  52 SW9       30.04R
OXFORD         LGT RAIN  73  63  68 SW8       30.06S
$$

MEZ002-015-021-024-NHZ003-005-008-011-012-014-VTZ005-008-280000-
NORTHERN NEW ENGLAND

CITY           SKY/WX    TMP DP  RH WIND       PRES   REMARKS
PORTLAND ME    CLOUDY    55  52  89 E7        30.03F
BANGOR ME      CLOUDY    58  51  78 S8        30.05F
CONCORD NH     MOSUNNY   78  61  55 SE8       29.99S
MANCHESTER NH  CLOUDY    77  59  53 E6        29.98S
NASHUA NH      CLOUDY    81  64  56 SE5       29.99S
PORTSMOUTH NH  PTSUNNY   58  53  83 VRB6      30.01S
JAFFREY NH     MOSUNNY   81  63  54 S10       30.03S
KEENE NH       MOSUNNY   84  64  51 S10G17    29.99F
BURLINGTON VT  FAIR      87  63  44 S12       29.89S
MT. WASHINGTON CLOUDY    56  55  95 SW43        N/A
$$

NYZ052-076-280000-
EASTERN NEW YORK

CITY           SKY/WX    TMP DP  RH WIND       PRES   REMARKS
ALBANY         CLOUDY    80  64  58 S10       29.97R
NEW YORK CITY  PTSUNNY   79  68  69 S12       30.00S
$$

ANZALL-280000-
MARINE OBSERVATIONS

STATION/POSITION TIME  TEMP    WIND        PRES    VSBY  WAVE
                       AIR SEA DIR/SP/G                  HT/PER
                 (UTC) (F)     (DEG/KT/KT) (MB)    (MI)  (FT/S)
BOSTON BUOY      2250   57 59   60/  4/  4 1016.5F         1/10
BUZZARDS BAY     2200   60     220/ 10/ 12 1019.1S
NANTUCKET SOUND  2250   60 57  230/ 12/ 16 1018.8R         1/ 3
MASS BAY-STELLWA 2204   56 57                N/A    1 3/4  2/ 5
ISLE OF SHOALS   2300   53      50/  5/  6 1016.6F
S OF BLOCK IS    2225      56                N/A           3/ 4
$$

......................KEY.........................
  SKY/WX - SKY CONDITION/PRESENT WEATHER
  TMP    - TEMPERATURE IN FAHRENHEIT
  DWPT   - DEWPOINT IN FAHRENHEIT
  RH     - RELATIVE HUMIDITY IN PERCENT
  WIND   - DIRECTION AND SPEED IN MPH
  PRES   - MEAN SEA LEVEL PRESSURE IN INCHES OF HG
  WCI    - WIND CHILL INDEX
  VSB    - VISIBILITY IN MILES
  HX     - HEAT INDEX
  TC     - TEMPERATURE IN CELSIUS
  VRB    - VARIABLE WIND DIRECTION
  N/A    - NOT AVAILABLE




USA.gov is the U.S. government's official web portal to all federal, state and local government web resources and services.